| time (UTC) | temp F | wind direction | speed MPH | gust MPH | rain 1hr in | rain 24hr in | rain mn in | humidity % | barometer mb |
| 20260505220015 | 101 | 142 | 6.0 | 13.0 | 0.00 | 0.00 | 0.00 | 44 | 1007.5 |
| 20260505214506 | 102 | 122 | 11.0 | 16.0 | 0.00 | 0.00 | 0.00 | 43 | 1007.6 |
| 20260505213005 | 102 | 116 | 5.0 | 15.0 | 0.00 | 0.00 | 0.00 | 43 | 1007.7 |
| 20260505211503 | 102 | 82 | 10.0 | 17.0 | 0.00 | 0.00 | 0.00 | 44 | 1007.9 |
| 20260505210107 | 100 | 103 | 4.0 | 15.0 | 0.00 | 0.00 | 0.00 | 46 | 1008.0 |
| 20260505204604 | 102 | 88 | 10.0 | 18.0 | 0.00 | 0.00 | 0.00 | 44 | 1008.3 |
| 20260505203106 | 102 | 182 | 4.0 | 16.0 | 0.00 | 0.00 | 0.00 | 44 | 1008.4 |
| 20260505201552 | 101 | 117 | 5.0 | 13.0 | 0.00 | 0.00 | 0.00 | 45 | 1008.8 |
| 20260505200058 | 101 | 126 | 4.0 | 16.0 | 0.00 | 0.00 | 0.00 | 45 | 1008.8 |
| 20260505194646 | 99 | 137 | 8.0 | 16.0 | 0.00 | 0.00 | 0.00 | 47 | 1009.0 |
| 20260505193057 | 100 | 133 | 10.0 | 14.0 | 0.00 | 0.00 | 0.00 | 45 | 1009.3 |
| 20260505191543 | 100 | 59 | 2.0 | 12.0 | 0.00 | 0.00 | 0.00 | 47 | 1009.7 |
| 20260505190034 | 100 | 75 | 5.0 | 13.0 | 0.00 | 0.00 | 0.00 | 47 | 1009.9 |
| 20260505184531 | 100 | 78 | 6.0 | 19.0 | 0.00 | 0.00 | 0.00 | 47 | 1010.1 |
| 20260505183033 | 98 | 71 | 9.0 | 20.0 | 0.00 | 0.00 | 0.00 | 50 | 1010.5 |
| 20260505181524 | 98 | 130 | 8.0 | 13.0 | 0.00 | 0.00 | 0.00 | 49 | 1010.8 |
| 20260505180018 | 98 | 119 | 5.0 | 20.0 | 0.00 | 0.00 | 0.00 | 50 | 1011.1 |
| 20260505174515 | 97 | 10 | 9.0 | 17.0 | 0.00 | 0.00 | 0.00 | 52 | 1011.2 |
| 20260505173014 | 96 | 92 | 8.0 | 16.0 | 0.00 | 0.00 | 0.00 | 52 | 1011.4 |
| 20260505171509 | 95 | 109 | 9.0 | 14.0 | 0.00 | 0.00 | 0.00 | 52 | 1011.4 |
| 20260505170005 | 95 | 84 | 7.0 | 17.0 | 0.00 | 0.00 | 0.00 | 54 | 1011.5 |
| 20260505164502 | 94 | 138 | 11.0 | 16.0 | 0.00 | 0.00 | 0.00 | 55 | 1011.6 |
| 20260505163104 | 93 | 207 | 7.0 | 16.0 | 0.00 | 0.00 | 0.00 | 56 | 1011.8 |
| 20260505161607 | 93 | 137 | 5.0 | 18.0 | 0.00 | 0.00 | 0.00 | 57 | 1011.8 |
| 20260505153046 | 90 | 127 | 8.0 | 15.0 | 0.00 | 0.00 | 0.00 | 62 | 1012.2 |
| 20260505151543 | 89 | 123 | 12.0 | 18.0 | 0.00 | 0.00 | 0.00 | 63 | 1012.3 |
| 20260505124510 | 79 | 110 | 7.0 | 11.0 | 0.00 | 0.00 | 0.00 | 87 | 1011.4 |
| 20260505123103 | 78 | 136 | 7.0 | 15.0 | 0.00 | 0.00 | 0.00 | 87 | 1011.2 |
| 20260505121558 | 78 | 121 | 6.0 | 12.0 | 0.00 | 0.00 | 0.00 | 88 | 1011.2 |
| 20260505120057 | 78 | 130 | 5.0 | 11.0 | 0.00 | 0.00 | 0.00 | 87 | 1011.1 |
| 20260505114550 | 77 | 119 | 6.0 | 13.0 | 0.00 | 0.00 | 0.00 | 87 | 1010.9 |
| 20260505113045 | 78 | 136 | 7.0 | 11.0 | 0.00 | 0.00 | 0.00 | 87 | 1010.9 |
| 20260505111543 | 78 | 153 | 8.0 | 11.0 | 0.00 | 0.00 | 0.00 | 87 | 1010.8 |
| 20260505101544 | 78 | 142 | 10.0 | 14.0 | 0.00 | 0.00 | 0.00 | 86 | 1010.2 |
| 20260505100036 | 78 | 109 | 7.0 | 13.0 | 0.00 | 0.00 | 0.00 | 85 | 1010.4 |
| 20260505094534 | 79 | 134 | 9.0 | 14.0 | 0.00 | 0.00 | 0.00 | 85 | 1010.3 |
| 20260505093033 | 79 | 134 | 8.0 | 13.0 | 0.00 | 0.00 | 0.00 | 84 | 1010.4 |
| 20260505091533 | 79 | 101 | 5.0 | 12.0 | 0.00 | 0.00 | 0.00 | 84 | 1010.6 |
| 20260505090039 | 79 | 103 | 8.0 | 11.0 | 0.00 | 0.00 | 0.00 | 83 | 1010.6 |
| 20260505084526 | 80 | 136 | 4.0 | 10.0 | 0.00 | 0.00 | 0.00 | 83 | 1010.7 |
| 20260505083122 | 80 | 22 | 6.0 | 12.0 | 0.00 | 0.00 | 0.00 | 83 | 1010.7 |
| 20260505081522 | 80 | 138 | 5.0 | 13.0 | 0.00 | 0.00 | 0.00 | 83 | 1010.9 |
| 20260505080037 | 80 | 60 | 5.0 | 13.0 | 0.00 | 0.00 | 0.00 | 82 | 1010.7 |
| 20260505074518 | 80 | 76 | 6.0 | 11.0 | 0.00 | 0.00 | 0.00 | 82 | 1010.7 |
| 20260505073026 | 80 | 12 | 7.0 | 17.0 | 0.00 | 0.00 | 0.00 | 81 | 1010.9 |
| 20260505071512 | 80 | 101 | 5.0 | 11.0 | 0.00 | 0.00 | 0.00 | 80 | 1011.0 |
| 20260505070010 | 80 | 121 | 6.0 | 14.0 | 0.00 | 0.00 | 0.00 | 80 | 1011.0 |
| 20260505064508 | 80 | 113 | 9.0 | 14.0 | 0.00 | 0.00 | 0.00 | 80 | 1011.3 |
| 20260505063005 | 80 | 84 | 6.0 | 13.0 | 0.00 | 0.00 | 0.00 | 80 | 1011.5 |
| 20260505061502 | 80 | 117 | 3.0 | 10.0 | 0.00 | 0.00 | 0.00 | 81 | 1011.6 |
| 20260505054559 | 80 | 132 | 2.0 | 10.0 | 0.00 | 0.00 | 0.00 | 81 | 1011.8 |
| 20260505053057 | 80 | 119 | 9.0 | 12.0 | 0.00 | 0.00 | 0.00 | 81 | 1012.1 |
| 20260505051557 | 80 | 119 | 7.0 | 10.0 | 0.00 | 0.00 | 0.00 | 80 | 1012.1 |
| 20260505041555 | 83 | 99 | 3.0 | 11.0 | 0.00 | 0.00 | 0.00 | 79 | 1012.5 |
| 20260505034554 | 83 | 163 | 6.0 | 12.0 | 0.00 | 0.00 | 0.00 | 79 | 1012.7 |
| 20260505033056 | 83 | 92 | 6.0 | 12.0 | 0.00 | 0.00 | 0.00 | 79 | 1012.6 |
| 20260505031559 | 83 | 120 | 3.0 | 13.0 | 0.00 | 0.00 | 0.00 | 79 | 1012.6 |
| 20260505030058 | 83 | 140 | 6.0 | 10.0 | 0.00 | 0.00 | 0.00 | 79 | 1012.3 |
| 20260505024554 | 83 | 111 | 6.0 | 14.0 | 0.00 | 0.00 | 0.00 | 79 | 1012.0 |
| 20260505023052 | 83 | 130 | 4.0 | 13.0 | 0.00 | 0.00 | 0.00 | 78 | 1011.8 |
| 20260505020052 | 84 | 71 | 12.0 | 19.0 | 0.00 | 0.00 | 0.00 | 77 | 1011.6 |
| 20260505014603 | 84 | 65 | 14.0 | 18.0 | 0.00 | 0.00 | 0.00 | 76 | 1011.3 |
| 20260505013050 | 84 | 19 | 13.0 | 20.0 | 0.00 | 0.00 | 0.00 | 76 | 1010.8 |
| 20260505011552 | 84 | 48 | 16.0 | 25.0 | 0.00 | 0.00 | 0.00 | 75 | 1010.5 |
| 20260505010049 | 85 | 40 | 13.0 | 18.0 | 0.00 | 0.00 | 0.00 | 74 | 1010.1 |
| 20260505004554 | 85 | 58 | 17.0 | 22.0 | 0.00 | 0.00 | 0.00 | 74 | 1009.8 |
| 20260505003047 | 85 | 12 | 13.0 | 22.0 | 0.00 | 0.00 | 0.00 | 73 | 1009.7 |
| 20260505001547 | 86 | 24 | 21.0 | 26.0 | 0.00 | 0.00 | 0.00 | 72 | 1009.7 |
| 20260505000052 | 87 | 12 | 13.0 | 20.0 | 0.00 | 0.00 | 0.00 | 71 | 1009.8 |
| 20260504234544 | 88 | 27 | 14.0 | 20.0 | 0.00 | 0.00 | 0.00 | 70 | 1009.7 |
| 20260504233044 | 88 | 5 | 10.0 | 18.0 | 0.00 | 0.00 | 0.00 | 69 | 1009.4 |
| 20260504231543 | 89 | 16 | 12.0 | 22.0 | 0.00 | 0.00 | 0.00 | 67 | 1009.4 |
| 20260504230046 | 90 | 338 | 13.0 | 21.0 | 0.00 | 0.00 | 0.00 | 67 | 1009.6 |
| 20260504224547 | 91 | 19 | 15.0 | 22.0 | 0.00 | 0.00 | 0.00 | 65 | 1009.3 |
| 20260504223042 | 92 | 355 | 14.0 | 20.0 | 0.00 | 0.00 | 0.00 | 64 | 1009.4 |
| 20260504221542 | 94 | 39 | 17.0 | 22.0 | 0.00 | 0.00 | 0.00 | 60 | 1009.4 |
| 20260504220042 | 95 | 34 | 10.0 | 18.0 | 0.00 | 0.00 | 0.00 | 58 | 1009.3 |